This is the latest recevied weather packets stored in our database for station/object KU9TRY. If no packets are shown the sender has not sent any weather packets the latest 10 day(s).
| Time | Temp. | Humidity | Pressure | Rain* | Wind** | Luminosity | Snow |
|---|---|---|---|---|---|---|---|
| 1778331213 | 14.44° C | 87% | 1011.6 hPa | 0 mm | - | 88 W/m² | - |
| 1778330910 | 14.44° C | 85% | 1011.5 hPa | 0 mm | - | 101 W/m² | - |
| 1778330607 | 13.89° C | 86% | 1011.7 hPa | 0 mm | - | 87 W/m² | - |
| 1778330305 | 13.89° C | 85% | 1011.4 hPa | 0 mm | - | 150 W/m² | - |
| 1778330001 | 13.33° C | 88% | 1011.4 hPa | 0 mm | - | 142 W/m² | - |
| 1778329697 | 13.33° C | 89% | 1011.4 hPa | 0 mm | - | 125 W/m² | - |
| 1778329394 | 12.78° C | 89% | 1011.2 hPa | 0 mm | - | 113 W/m² | - |
| 1778329091 | 12.22° C | 89% | 1011.2 hPa | 0 mm | - | 84 W/m² | - |
| 1778328788 | 12.22° C | 89% | 1011 hPa | 0 mm | - | 73 W/m² | - |
| 1778328487 | 12.22° C | 91% | 1011.2 hPa | 0 mm | - | 90 W/m² | - |
| 1778328184 | 11.11° C | 93% | 1010.9 hPa | 0 mm | - | 55 W/m² | - |
| 1778327882 | 10.56° C | 94% | 1010.8 hPa | 0 mm | - | 48 W/m² | - |
| 1778327579 | 10.56° C | 93% | 1010.9 hPa | 0 mm | - | 40 W/m² | - |
| 1778327277 | 10.56° C | 93% | 1010.7 hPa | 0 mm | - | 34 W/m² | - |
| 1778326975 | 10.56° C | 94% | 1010.8 hPa | 0 mm | - | 33 W/m² | - |
| 1778326674 | 10.56° C | 94% | 1010.7 hPa | 0 mm | - | 32 W/m² | - |
| 1778326370 | 10.56° C | 94% | 1010.7 hPa | 0 mm | - | 31 W/m² | - |
| 1778326067 | 10° C | 95% | 1010.7 hPa | 0 mm | - | 31 W/m² | - |
| 1778325765 | 10° C | 96% | 1010.7 hPa | 0 mm | - | 32 W/m² | - |
| 1778325462 | 9.44° C | 95% | 1010.7 hPa | 0 mm | - | 30 W/m² | - |
| 1778325158 | 9.44° C | 95% | 1011 hPa | 0 mm | - | 25 W/m² | - |
| 1778324856 | 9.44° C | 95% | 1010.8 hPa | 0 mm | - | 19 W/m² | - |
| 1778324552 | 9.44° C | 95% | 1010.8 hPa | 0 mm | - | 14 W/m² | - |
| 1778324250 | 10° C | 95% | 1010.9 hPa | 0 mm | - | 10 W/m² | - |
| 1778323948 | 10° C | 95% | 1010.8 hPa | 0 mm | - | 7 W/m² | - |
* Rain latest hour (hover to see other rain measurements)
** Current wind speed in m/s (hover to see current wind gust speed)